This demonstration page uses our WeatherBlox Daily Observations layout. Learn more.

Left ArrowRight Arrow

41.86663, -103.66717

Hourly Observations for July 28, 2017

Temp ( °F °C ) Dew Point ( °F °C ) Humidity (%) Winds ( mph kmh ) Pressure ( in mb ) Visibility ( mi km ) Precip ( " mm )
12:05 am 00:05 Cloudy 64 17.8 62 16.7 93 93 ENE 14 22 29.94 1014 10 16 0.00 0.00
12:51 am 00:51 Cloudy 64 18 63 17 94 94 E 18 30 29.94 1014 10 16 0.00 0.00
12:53 am 00:53 Cloudy 65 18.3 63 17.2 93 93 E 17 28 29.95 1014 10 16 0.00 0.00
1:53 am 01:53 Cloudy 66 18.9 62 16.7 87 87 ESE 14 22 29.95 1014 10 16 0.00 0.00
2:27 am 02:27 Mostly Cloudy 65 18.3 62 16.7 90 90 SSE 10 17 29.94 1014 10 16 0.00 0.00
2:53 am 02:53 Mostly Cloudy 65 18.3 62 16.7 90 90 SSE 13 20 29.94 1014 10 16 0.00 0.00
3:53 am 03:53 Cloudy 65 18.3 61 16.1 87 87 ESE 7 11 29.94 1014 10 16 0.00 0.00
4:53 am 04:53 Cloudy 66 18.9 61 16.1 84 84 SSE 3 6 29.94 1014 10 16 0.00 0.00
5:53 am 05:53 Cloudy 66 18.9 61 16.1 84 84 NE 5 7 29.98 1015 10 16 0.00 0.00
6:11 am 06:11 Cloudy 66 18.9 61 16.1 84 84 E 3 6 29.91 1013 10 16 0.00 0.00
6:53 am 06:53 Cloudy 66 18.9 61 16.1 84 84 ESE 6 9 29.98 1015 10 16 0.00 0.00
7:53 am 07:53 Cloudy 67 19.4 61 16.1 81 81 SE 3 6 29.98 1015 10 16 0.00 0.00
8:53 am 08:53 Cloudy 70 21.1 61 16.1 73 73 Calm 29.99 1016 10 16 0.00 0.00
9:53 am 09:53 Partly Cloudy 76 24.4 63 17.2 64 64 VRB 3 6 29.97 1015 10 16 0.00 0.00
10:04 am 10:04 Mostly Cloudy 75 24 63 17 65 65 VRB 3 6 29.88 1012 10 16 0.00 0.00
10:53 am 10:53 Cloudy 75 23.9 63 17.2 66 66 VRB 3 6 29.98 1015 10 16 0.00 0.00
11:53 am 11:53 Mostly Cloudy 79 26.1 63 17.2 58 58 VRB 5 7 29.97 1015 10 16 0.00 0.00
12:15 pm 12:15 Partly Cloudy 80 26.7 63 17.2 56 56 NNE 6 9 29.83 1010 10 16 0.00 0.00
12:53 pm 12:53 Sunny 81 27.2 64 17.8 57 57 Calm 29.95 1014 10 16 0.00 0.00
1:53 pm 13:53 Sunny 83 28.3 65 18.3 55 55 ESE 8 13 29.93 1014 10 16 0.00 0.00
2:53 pm 14:53 Sunny 84 28.9 63 17.2 49 49 SE 8 13 29.93 1013 10 16 0.00 0.00
3:53 pm 15:53 Sunny 85 29.4 64 17.8 50 50 E 8 13 29.90 1013 10 16 0.00 0.00
4:53 pm 16:53 Partly Cloudy with Nearby Thunderstorms 85 29.4 65 18.3 51 51 E 10 17 29.92 1013 10 16 0.00 0.00
5:21 pm 17:21 Mostly Cloudy with Thunderstorms 73 22.8 62 16.7 69 69 NNW 16 26 29.88 1012 10 16 0.00 0.03
5:51 pm 17:51 Partly Cloudy with Nearby Thunderstorms 77 25 66 19 69 69 E 3 6 29.80 1009 10 16 0.00 0.03
5:53 pm 17:53 Partly Cloudy with Nearby Thunderstorms 78 25.6 65 18.3 64 64 Calm 29.93 1014 10 16 0.00 0.03
6:04 pm 18:04 Partly Cloudy with Light Rain 77 25 67 19.4 71 71 S 8 13 29.80 1009 10 16 0.00 0.03
6:53 pm 18:53 Sunny 80 26.7 66 18.9 62 62 ENE 5 7 29.91 1013 10 16 0.00 0.03
7:53 pm 19:53 Sunny 78 25.6 68 20 71 71 E 6 9 29.91 1013 10 16 0.00 0.00
8:53 pm 20:53 Clear 73 22.8 65 18.3 76 76 undefined N/A 29.93 1014 10 16 0.00 0.00
9:53 pm 21:53 Clear 71 21.7 66 18.9 84 84 ESE 5 7 29.96 1014 10 16 0.00 0.00
10:53 pm 22:53 Clear 71 21.7 65 18.3 81 81 SE 3 6 29.96 1015 10 16 0.00 0.00
11:53 pm 23:53 Clear 69 20.6 65 18.3 87 87 ENE 5 7 29.96 1015 10 16 0.00 0.00

Powered by AerisWeather